Temperature
22 20 17 17 18 19 20 20 19 14 14 14 13 10 9 9 9 9 8 8 7 6 5 4 3 2 1 -0 -1 -1 -2 -2 -3 -3 -3 -3 -4 -4 -4 -4 -5 -5 -5 -5
20 17 17 19 19 19 20 19 18 14 13 13 12 11 10 9 9 8 7 7 7 6 5 4 3 2 0 -1 -2 -2 -3 -4 -4 -4 -5 -5 -5 -5 -5 -5 -6 -6 -6 -6
18 17 18 19 19 18 19 18 16 16 13 12 12 11 9 9 8 7 7 7 6 5 4 4 2 1 -0 -2 -2 -3 -4 -5 -5 -5 -6 -6 -6 -6 -6 -6 -6 -6 -6 -6
17 18 18 19 17 16 18 15 15 15 13 12 11 11 8 8 8 8 8 7 6 5 4 3 2 0 -1 -2 -3 -4 -5 -5 -6 -6 -6 -7 -7 -7 -7 -7 -7 -7 -7 -7
16 16 17 17 16 15 16 15 14 14 14 13 12 11 9 8 8 8 8 7 6 5 4 3 1 -0 -1 -3 -4 -4 -5 -6 -6 -7 -7 -7 -8 -8 -8 -8 -8 -8 -8 -8
16 16 16 15 16 16 15 15 14 14 13 13 15 12 9 8 8 7 7 6 5 4 3 2 1 -1 -2 -3 -4 -5 -6 -6 -7 -7 -7 -8 -8 -8 -8 -8 -8 -8 -8 -8
16 16 16 16 16 16 16 15 15 14 13 14 15 13 8 7 7 6 6 6 5 4 2 1 -0 -2 -3 -4 -5 -5 -6 -6 -7 -7 -8 -8 -8 -9 -9 -9 -9 -9 -9 -9
19 16 15 15 14 13 16 15 13 13 13 14 13 11 6 7 7 6 6 6 4 3 2 0 -1 -2 -3 -4 -5 -6 -6 -7 -7 -8 -8 -8 -9 -9 -9 -10 -10 -10 -10 -10
16 16 14 14 14 14 15 14 14 12 13 13 13 7 7 7 7 7 6 5 4 2 1 -1 -2 -3 -4 -4 -5 -6 -7 -7 -7 -8 -8 -9 -9 -9 -10 -10 -10 -10 -10 -11
14 15 15 14 13 13 14 13 13 13 12 11 13 11 7 6 6 6 6 4 3 2 0 -1 -2 -3 -4 -5 -5 -6 -7 -7 -8 -8 -8 -9 -9 -10 -10 -10 -11 -11 -11 -11
14 14 15 14 15 14 14 14 14 13 12 11 10 9 7 6 6 5 5 4 2 1 -1 -2 -3 -4 -4 -5 -6 -6 -7 -7 -8 -8 -9 -9 -9 -10 -10 -11 -11 -11 -11 -11
13 12 14 13 11 12 13 12 12 11 11 12 10 7 7 6 6 6 5 3 2 0 -1 -2 -3 -4 -5 -6 -6 -7 -7 -8 -8 -9 -9 -9 -10 -10 -11 -11 -11 -12 -12 -12
11 12 14 13 11 11 12 12 11 11 10 9 8 8 7 6 6 5 4 2 1 -1 -2 -3 -4 -5 -5 -6 -7 -7 -7 -8 -8 -9 -9 -9 -10 -11 -11 -12 -12 -12 -12 -12
10 11 13 13 13 10 11 11 10 10 8 8 10 9 6 6 5 5 3 1 -0 -2 -3 -4 -5 -5 -6 -6 -7 -7 -8 -8 -9 -9 -9 -10 -10 -11 -12 -12 -12 -12 -13 -13
10 11 13 13 12 11 10 10 10 9 9 8 8 8 6 5 5 4 3 0 -1 -3 -4 -5 -5 -6 -6 -7 -7 -7 -8 -8 -9 -9 -10 -10 -11 -12 -12 -12 -13 -13 -13 -13
11 10 11 11 10 9 8 8 9 8 8 8 8 7 5 5 5 3 1 -1 -2 -4 -4 -5 -6 -6 -6 -7 -7 -8 -8 -8 -9 -10 -10 -11 -12 -12 -12 -13 -13 -13 -13 -13
11 10 10 9 11 10 9 10 8 8 8 8 7 6 5 5 4 2 -0 -2 -3 -4 -5 -5 -6 -6 -7 -7 -8 -8 -8 -9 -9 -10 -11 -12 -12 -12 -12 -13 -13 -13 -13 -13
10 10 9 8 9 9 10 7 9 9 9 8 7 6 5 4 2 -0 -2 -2 -4 -5 -5 -5 -6 -6 -7 -7 -8 -8 -8 -9 -10 -10 -11 -12 -12 -12 -13 -13 -13 -13 -13 -13
8 9 8 7 8 10 8 7 7 7 7 7 6 5 4 3 1 -2 -3 -3 -4 -5 -5 -6 -6 -6 -7 -7 -8 -8 -8 -9 -10 -11 -11 -12 -12 -13 -13 -13 -13 -13 -13 -13
7 7 7 7 7 8 9 7 7 6 5 6 5 4 3 2 -1 -2 -3 -4 -4 -5 -5 -5 -6 -6 -7 -7 -8 -8 -9 -10 -10 -11 -11 -12 -12 -13 -13 -13 -13 -13 -13 -13
7 6 6 6 6 8 6 6 6 5 5 5 4 3 2 1 -1 -2 -4 -4 -4 -5 -5 -5 -6 -6 -7 -7 -8 -8 -9 -10 -10 -11 -11 -12 -12 -13 -13 -13 -13 -13 -14 -13
9 8 7 7 7 7 6 4 4 5 4 4 3 2 1 -1 -2 -3 -4 -4 -4 -5 -5 -5 -6 -6 -7 -7 -8 -9 -9 -10 -10 -10 -11 -12 -12 -13 -13 -13 -13 -14 -14 -13
10 10 9 9 8 7 6 6 5 5 4 3 2 1 0 -1 -3 -3 -4 -4 -4 -5 -5 -6 -6 -6 -7 -8 -8 -9 -9 -9 -10 -10 -11 -12 -12 -13 -13 -13 -14 -14 -14 -13
10 9 8 8 7 6 6 5 4 4 3 2 2 1 -0 -2 -3 -3 -4 -4 -4 -5 -5 -6 -6 -6 -7 -7 -8 -9 -9 -9 -9 -10 -11 -12 -12 -13 -13 -13 -14 -14 -14 -13
11 6 6 7 7 6 5 4 3 3 2 2 1 0 -1 -2 -3 -3 -4 -4 -4 -5 -5 -6 -6 -6 -7 -7 -8 -9 -9 -9 -9 -10 -11 -11 -12 -13 -13 -13 -14 -14 -14 -13
9 8 7 7 8 6 5 4 3 2 2 2 1 -0 -1 -2 -3 -3 -4 -4 -5 -5 -5 -6 -6 -6 -7 -7 -8 -8 -8 -9 -9 -10 -10 -11 -12 -12 -13 -13 -13 -14 -14 -14
Wind_Speed
4 6 7 7 7 7 7 7 5 6 4 1 4 10 8 6 2 3 6 7 7 8 9 9 9 9 10 11 12 13 13 13 13 11 12 12 12 11 12 18 22 22 23 23
6 6 6 5 3 5 5 6 3 6 5 1 4 8 9 7 4 5 5 5 6 7 8 9 9 9 10 10 11 12 12 12 11 10 10 8 10 8 13 18 20 21 23 23
8 4 5 4 7 8 2 5 6 3 5 3 3 7 10 9 7 5 4 1 6 8 9 8 8 9 9 10 10 12 12 11 12 16 12 11 7 8 8 10 8 19 23 22
7 3 4 3 7 7 4 6 5 4 3 5 8 3 8 10 8 7 3 5 7 8 8 7 8 9 9 9 9 10 11 10 12 15 11 13 11 11 12 10 8 17 22 21
5 5 6 5 4 5 5 4 5 7 6 4 6 5 6 9 8 6 5 7 7 7 8 8 9 9 9 9 8 9 10 9 11 12 11 11 10 9 10 11 11 10 16 19
5 3 3 4 4 4 7 8 8 4 3 5 4 6 5 3 5 7 7 7 7 8 9 9 9 9 8 8 8 8 9 9 9 9 9 11 12 12 13 13 12 11 8 12
6 5 3 2 6 2 5 7 3 2 4 4 2 0 6 7 10 8 5 5 7 8 8 8 9 9 8 9 8 9 10 10 10 10 10 11 11 11 12 12 12 13 11 10
2 4 4 4 5 5 6 5 4 4 6 5 3 3 6 9 7 3 1 5 8 9 8 9 9 8 8 9 9 9 10 10 10 10 11 9 9 9 8 11 11 11 10 9
7 2 4 3 4 5 6 5 2 3 7 6 2 6 6 6 5 2 5 7 8 8 8 8 8 8 8 8 9 9 10 10 10 10 11 10 10 10 10 10 9 7 10 15
6 5 4 4 3 1 3 4 4 4 5 6 6 4 5 6 2 5 7 8 8 8 8 8 8 8 8 8 8 9 9 10 10 10 11 14 10 9 10 9 11 10 12 16
5 5 3 4 1 2 0 2 2 4 4 3 6 1 5 7 5 5 6 7 7 8 8 8 8 8 8 8 8 8 9 10 10 11 11 11 11 10 11 9 10 10 12 14
5 3 3 4 5 3 3 4 4 3 5 4 5 1 6 7 4 3 5 7 8 9 8 8 9 9 8 9 9 9 9 10 10 11 11 12 12 11 11 12 11 14 12 14
7 4 4 1 0 1 3 2 2 3 2 4 4 1 7 6 3 6 7 8 9 9 9 8 8 8 9 9 9 10 10 10 11 12 12 13 13 13 13 13 12 14 13 12
3 4 4 5 2 2 2 4 4 3 4 5 4 3 3 5 6 7 8 9 9 9 8 8 8 8 9 9 9 10 11 11 13 13 13 13 13 13 13 12 11 12 13 12
3 4 5 7 2 2 5 6 5 7 7 6 6 6 4 6 7 7 8 9 9 8 9 9 9 9 9 10 10 10 11 11 13 13 13 13 13 13 12 12 13 11 12 14
1 4 4 5 3 3 6 8 7 7 7 7 8 4 7 6 7 7 8 9 8 8 8 9 9 9 10 10 10 11 11 12 12 13 13 14 13 12 12 12 12 12 12 12
0 3 4 5 3 5 7 6 9 5 6 4 3 1 5 6 7 6 8 8 7 7 7 8 8 9 9 9 10 11 11 12 13 13 13 12 12 12 12 14 13 12 11 11
3 2 2 5 7 6 2 4 1 4 4 3 1 2 4 5 7 9 9 7 6 6 7 7 8 8 9 8 9 10 11 12 13 12 11 12 12 12 12 11 11 11 10 10
3 2 2 2 5 9 2 3 3 3 5 5 4 3 5 6 4 5 6 5 5 6 6 6 7 8 9 9 10 11 12 13 11 11 13 13 13 13 12 12 11 10 10 10
1 2 2 2 3 6 2 6 4 3 5 6 6 4 4 4 2 1 3 4 6 6 5 6 7 7 8 9 10 11 13 12 12 13 14 14 13 12 12 12 11 10 10 11
3 4 3 5 6 8 4 7 6 3 4 8 7 6 5 3 3 4 5 6 6 6 6 7 8 7 8 9 10 11 11 12 13 13 14 13 12 12 11 10 9 10 10 11
7 6 6 5 5 9 8 8 7 5 7 8 8 7 6 6 7 7 6 5 5 6 7 7 8 8 9 9 10 10 11 11 12 13 14 12 12 12 12 10 9 9 10 10
6 6 5 7 7 3 7 6 5 8 8 7 7 8 7 6 6 6 5 4 5 6 6 6 7 9 9 9 9 10 11 12 13 13 13 12 12 10 10 9 9 8 8 9
6 3 2 5 5 7 7 7 7 8 9 9 9 9 7 7 7 6 4 3 4 5 5 6 8 9 10 10 9 9 10 11 12 13 13 11 10 10 9 8 8 8 8 9
4 8 5 6 2 6 7 8 8 10 11 11 10 8 7 8 7 5 3 3 3 4 5 6 7 8 9 9 10 9 9 11 11 12 11 11 11 9 9 10 9 11 8 12
6 8 7 7 7 8 8 11 11 11 11 10 10 8 8 7 7 5 4 2 2 4 5 6 7 8 9 9 10 9 8 10 12 12 11 9 8 9 8 8 9 16 18 20
Wind_Direction
16 52 39 11 358 328 334 334 51 101 106 269 159 140 148 156 172 47 49 34 37 31 25 40 36 33 23 18 14 3 358 355 355 354 345 343 340 337 337 345 347 343 342 340
108 59 9 331 329 308 319 322 61 124 122 241 167 160 152 154 121 53 19 13 21 33 16 21 26 31 22 18 12 0 356 352 354 351 340 338 332 329 336 342 338 339 340 340
79 54 324 335 16 339 318 21 1 12 136 214 218 195 159 147 133 160 220 90 39 29 14 10 19 28 21 19 12 359 352 349 350 349 342 339 327 332 338 336 333 340 340 338
80 43 324 3 39 347 13 36 333 295 231 217 179 236 159 157 173 190 182 68 44 32 15 13 25 27 21 18 11 359 349 346 348 348 343 341 340 338 335 333 330 337 337 335
82 24 1 28 19 335 327 324 278 272 253 259 193 239 143 151 189 174 96 55 39 31 20 22 31 28 20 15 8 355 345 345 346 347 342 339 334 332 330 329 331 333 331 333
112 104 40 353 289 249 287 271 230 247 243 257 211 190 142 180 149 101 60 36 27 26 24 26 27 22 14 12 5 351 345 343 343 344 340 338 334 334 332 334 334 332 328 332
150 131 108 318 307 214 314 326 324 275 227 212 75 183 103 82 71 70 42 20 27 30 26 22 19 12 9 5 359 350 346 341 342 341 340 336 334 332 330 333 331 329 331 333
333 132 65 28 19 331 326 349 19 313 304 313 193 111 115 106 105 120 48 40 37 33 29 24 17 11 7 2 357 351 345 341 341 340 338 331 332 330 327 328 326 326 329 326
356 50 137 75 10 340 344 37 38 282 279 278 132 96 128 139 166 125 30 36 34 33 30 21 12 11 7 2 357 350 344 340 339 339 336 330 332 328 326 324 321 323 326 328
330 303 138 133 195 162 8 339 314 295 322 307 295 126 165 167 124 38 21 29 29 33 29 18 11 8 6 2 352 347 342 337 336 338 336 334 327 324 324 322 323 324 326 327
334 305 189 183 235 70 227 232 312 283 248 270 297 25 93 106 77 29 16 35 36 39 31 16 11 6 1 357 350 344 341 339 339 337 332 328 325 324 325 322 322 323 323 325
22 316 294 74 55 22 21 15 348 316 311 298 289 141 123 119 113 61 35 41 46 44 31 18 10 360 356 352 346 343 342 340 338 334 330 328 326 326 325 324 323 324 321 322
349 302 283 252 34 270 175 124 327 319 301 270 271 295 153 151 92 55 46 48 44 37 24 14 4 356 352 347 344 343 342 339 336 334 331 329 328 326 324 323 322 322 319 318
322 290 276 297 326 35 277 196 199 243 239 266 272 23 145 94 45 36 45 54 44 31 18 7 359 351 347 344 343 342 338 339 337 334 330 326 323 321 319 320 320 320 320 320
300 289 293 292 268 194 258 268 248 228 246 260 292 351 45 66 38 33 50 52 36 19 8 3 354 345 343 341 340 338 335 336 333 328 322 317 315 315 318 320 321 323 324 325
261 291 302 284 146 202 251 241 240 246 250 263 291 328 89 51 35 29 57 50 30 12 2 356 349 344 340 337 336 334 332 330 325 318 313 312 316 320 322 323 325 325 323 321
238 308 314 291 244 259 271 218 194 208 212 239 266 78 58 27 20 33 67 54 29 10 358 349 343 338 333 332 332 331 328 323 317 312 312 318 323 325 325 328 329 325 323 323
326 292 289 300 327 279 240 17 92 205 232 198 209 54 62 44 52 73 70 54 25 8 355 344 337 330 326 327 331 328 323 317 313 316 325 329 327 326 327 328 328 326 324 323
350 321 307 310 295 274 180 184 161 188 267 177 167 118 69 41 66 85 58 53 39 18 0 343 335 328 329 335 337 329 321 317 322 332 335 332 331 331 332 333 331 329 327 325
317 300 261 199 257 263 218 135 103 88 257 138 128 114 72 42 344 126 80 52 43 21 0 347 338 335 336 337 331 323 320 326 336 337 333 330 331 332 331 333 334 334 334 334
195 194 207 221 241 267 138 131 125 164 235 135 125 115 99 105 136 115 94 63 41 15 358 355 345 338 335 329 322 319 323 334 335 333 328 329 332 331 334 336 336 338 339 338
196 200 213 206 236 256 147 148 188 191 123 124 116 109 110 106 104 96 82 65 38 13 2 357 344 333 329 323 322 324 330 331 333 331 329 331 334 339 345 340 339 340 339 339
216 209 212 208 219 141 158 167 137 128 132 122 117 114 119 117 111 102 85 62 38 19 359 348 338 328 325 321 325 329 329 334 335 333 332 333 337 339 342 343 341 343 341 342
207 119 218 270 230 173 160 122 129 124 119 112 116 118 121 122 119 116 101 63 33 8 350 342 336 327 320 320 329 328 330 336 335 333 333 337 340 340 342 345 345 346 344 346
230 158 215 249 158 135 170 153 137 115 113 113 113 115 121 125 125 123 108 69 23 350 339 333 322 314 315 323 329 331 337 338 334 332 333 339 342 337 341 347 348 350 345 356
211 186 192 228 188 174 186 159 139 135 136 133 129 124 122 126 129 123 108 79 358 327 320 319 319 321 320 324 328 333 338 338 335 336 338 339 340 341 342 339 343 353 357 359
Height
1561 1566 1575 1574 1572 1570 1567 1568 1571 1583 1587 1588 1590 1598 1603 1606 1608 1609 1610 1611 1611 1611 1610 1607 1604 1600 1595 1591 1585 1580 1574 1569 1563 1557 1551 1546 1542 1538 1535 1532 1527 1523 1518 1514
1567 1577 1577 1573 1571 1569 1568 1570 1573 1584 1586 1588 1590 1596 1600 1605 1607 1610 1611 1611 1611 1610 1609 1607 1603 1599 1595 1590 1585 1579 1574 1568 1563 1558 1553 1548 1543 1538 1535 1530 1526 1521 1517 1513
1574 1580 1577 1573 1573 1573 1569 1575 1579 1580 1587 1588 1590 1595 1599 1603 1607 1610 1610 1610 1610 1609 1608 1606 1602 1598 1594 1589 1584 1579 1573 1568 1562 1557 1552 1546 1541 1537 1532 1527 1523 1519 1515 1511
1577 1579 1577 1575 1578 1579 1576 1578 1579 1579 1586 1586 1591 1595 1599 1601 1605 1607 1608 1608 1609 1608 1607 1605 1601 1597 1593 1589 1583 1578 1573 1567 1562 1556 1551 1545 1540 1535 1531 1526 1521 1517 1513 1509
1582 1581 1580 1580 1582 1582 1579 1578 1579 1578 1581 1583 1587 1590 1597 1599 1603 1604 1606 1607 1608 1607 1606 1603 1600 1596 1593 1588 1583 1577 1572 1567 1561 1556 1550 1545 1540 1535 1530 1525 1520 1515 1510 1507
1582 1583 1583 1584 1582 1580 1579 1576 1576 1578 1582 1586 1572 1583 1593 1597 1598 1603 1606 1607 1607 1606 1605 1603 1599 1596 1592 1587 1582 1576 1570 1565 1560 1554 1549 1544 1539 1533 1527 1522 1517 1512 1507 1504
1583 1583 1584 1584 1580 1578 1579 1580 1583 1584 1586 1580 1570 1576 1599 1600 1602 1604 1607 1607 1606 1605 1603 1601 1598 1594 1590 1585 1580 1574 1569 1563 1558 1553 1548 1542 1537 1532 1527 1521 1515 1510 1505 1500
1578 1586 1586 1585 1587 1588 1581 1582 1596 1599 1590 1577 1572 1584 1605 1602 1604 1606 1606 1606 1605 1604 1602 1600 1597 1593 1589 1584 1578 1573 1567 1562 1557 1551 1546 1541 1536 1530 1525 1520 1514 1509 1504 1498
1588 1586 1588 1587 1587 1587 1585 1587 1589 1594 1587 1584 1577 1600 1605 1603 1604 1604 1605 1605 1604 1603 1601 1599 1596 1592 1587 1582 1577 1572 1566 1561 1555 1550 1544 1538 1533 1528 1523 1518 1513 1508 1502 1497
1592 1591 1585 1587 1588 1589 1588 1589 1591 1593 1597 1596 1578 1584 1599 1602 1603 1604 1604 1604 1603 1602 1600 1598 1594 1591 1586 1581 1576 1571 1565 1560 1554 1548 1542 1537 1531 1526 1521 1515 1510 1505 1499 1494
1592 1593 1587 1587 1586 1587 1589 1588 1589 1591 1592 1601 1596 1597 1597 1601 1603 1604 1603 1603 1602 1600 1598 1596 1593 1589 1585 1580 1575 1569 1564 1558 1552 1546 1540 1534 1529 1523 1518 1513 1508 1502 1497 1491
1594 1596 1590 1590 1593 1591 1590 1592 1593 1600 1596 1590 1595 1603 1598 1600 1601 1602 1602 1602 1601 1599 1597 1595 1592 1588 1583 1579 1573 1568 1562 1557 1551 1545 1538 1532 1527 1521 1515 1510 1505 1500 1494 1489
1599 1597 1595 1594 1598 1595 1592 1593 1594 1597 1600 1601 1602 1601 1598 1599 1600 1600 1601 1600 1599 1598 1596 1594 1590 1586 1582 1577 1572 1567 1561 1555 1549 1543 1536 1530 1524 1518 1512 1507 1502 1496 1491 1486
1601 1599 1597 1598 1594 1596 1593 1594 1595 1598 1603 1600 1592 1594 1599 1598 1599 1599 1599 1599 1598 1597 1595 1592 1589 1585 1580 1576 1571 1565 1559 1553 1547 1540 1534 1528 1521 1516 1510 1505 1499 1494 1489 1483
1601 1600 1591 1589 1590 1592 1594 1594 1594 1596 1596 1598 1592 1594 1596 1598 1598 1599 1598 1598 1597 1596 1594 1591 1588 1584 1579 1574 1569 1564 1558 1551 1545 1538 1532 1525 1519 1514 1508 1502 1497 1491 1486 1481
1600 1601 1595 1591 1590 1594 1594 1592 1593 1594 1594 1593 1593 1595 1596 1597 1597 1598 1598 1597 1597 1596 1594 1590 1587 1582 1578 1573 1567 1562 1556 1549 1543 1536 1530 1524 1518 1512 1506 1500 1495 1489 1483 1478
1600 1601 1601 1599 1589 1591 1590 1583 1589 1590 1589 1590 1593 1596 1595 1596 1597 1598 1597 1596 1596 1595 1592 1589 1586 1581 1577 1572 1566 1560 1554 1548 1541 1535 1528 1523 1516 1510 1504 1499 1493 1487 1481 1476
1602 1601 1604 1604 1598 1598 1583 1585 1583 1585 1586 1587 1590 1593 1595 1597 1597 1597 1596 1596 1595 1594 1591 1588 1584 1580 1576 1571 1566 1560 1553 1546 1540 1534 1528 1521 1515 1509 1503 1497 1491 1486 1480 1475
1603 1603 1605 1609 1603 1589 1587 1585 1586 1588 1587 1586 1589 1592 1594 1595 1596 1597 1596 1595 1594 1593 1590 1587 1584 1580 1575 1570 1564 1558 1551 1545 1539 1533 1526 1520 1514 1508 1502 1496 1490 1485 1479 1474
1604 1604 1607 1607 1609 1598 1583 1585 1585 1589 1590 1586 1588 1591 1593 1594 1597 1598 1596 1594 1593 1591 1589 1586 1583 1578 1574 1569 1563 1557 1550 1544 1538 1532 1525 1519 1514 1508 1502 1496 1490 1485 1479 1474
1605 1606 1609 1606 1605 1587 1584 1584 1587 1593 1587 1586 1588 1590 1592 1593 1595 1596 1594 1593 1592 1590 1588 1585 1581 1577 1573 1567 1562 1556 1550 1545 1539 1532 1525 1520 1514 1508 1502 1497 1491 1485 1480 1474
1595 1598 1599 1598 1599 1589 1581 1583 1586 1584 1582 1584 1587 1589 1591 1592 1592 1593 1592 1591 1590 1589 1587 1584 1580 1576 1572 1567 1561 1556 1551 1545 1539 1532 1525 1519 1514 1508 1502 1497 1491 1485 1480 1474
1584 1583 1582 1583 1582 1574 1575 1576 1578 1579 1581 1583 1585 1587 1589 1589 1590 1591 1591 1590 1589 1588 1586 1583 1579 1576 1571 1566 1561 1556 1551 1545 1538 1532 1525 1520 1514 1508 1503 1497 1491 1486 1481 1476
1576 1575 1577 1576 1571 1572 1573 1574 1576 1578 1580 1582 1584 1585 1586 1587 1588 1589 1589 1589 1588 1587 1585 1582 1579 1575 1570 1566 1561 1557 1551 1545 1538 1532 1526 1520 1514 1508 1503 1498 1493 1487 1482 1477
1570 1573 1574 1572 1570 1571 1572 1572 1575 1576 1578 1580 1582 1584 1584 1585 1586 1587 1588 1588 1588 1586 1584 1581 1578 1574 1570 1565 1561 1556 1551 1545 1538 1532 1526 1521 1515 1510 1504 1499 1495 1490 1485 1481
1564 1565 1568 1565 1561 1564 1565 1568 1571 1574 1576 1579 1580 1581 1583 1584 1585 1586 1587 1587 1586 1585 1583 1580 1577 1573 1569 1565 1561 1556 1551 1545 1539 1532 1527 1521 1516 1511 1506 1500 1495 1491 1487 1483